Shreveport, LA

9:07 AM CDT on July 24, 2016 (GMT -0500)
Shreveport Regional

Weather History for KSHV - March, 2014

Change the Weather History Date:

Saturday, March 22, 2014

  Actual Average Record
Temperature  
Mean Temperature 68 °F 59 °F  
Max Temperature 76 °F 71 °F 90 °F (1995)
Min Temperature 59 °F 48 °F 29 °F (1986)
Degree Days  
Heating Degree Days 0 7  
Month to date heating degree days 260 198  
Since 1 July heating degree days 2371 2080  
Cooling Degree Days 3 1  
Month to date cooling degree days 5 20  
Year to date cooling degree days 11 30  
Growing Degree Days 17 (Base 50)    
Moisture  
Dew Point 59 °F    
Average Humidity 77    
Maximum Humidity 93    
Minimum Humidity 60    
Precipitation  
Precipitation 0.00 in 0.14 in 1.29 in (1894)
Month to date precipitation 1.62 2.91  
Year to date precipitation 5.06 11.86  
Snow  
Snow 0.00 in - - ()
Month to date snowfall T  
Since 1 July snowfall 1.0  
Snow Depth 0.00 in    
Sea Level Pressure  
Sea Level Pressure 29.98 in    
Wind  
Wind Speed 5 mph (East)    
Max Wind Speed 13 mph    
Max Gust Speed 21 mph    
Visibility 8 miles    
Events      
T = Trace of Precipitation, MM = Missing Value Source: NWS Daily Summary

Daily Weather History Graph

Daily Weather History Graph

Search for Another Location

Airport or City:

Trip Planner

Search our weather history database for the weather conditions in past years. The results will help you decide how hot, cold, wet, or windy it might be!

Date:

Astronomy

Mar. 22, 2014 Rise Set
Actual Time 7:16 AM CDT 7:28 PM CDT
Civil Twilight 6:51 AM CDT 7:52 PM CDT
Nautical Twilight 6:23 AM CDT 8:21 PM CDT
Astronomical Twilight 5:54 AM CDT 8:50 PM CDT
Moon 12:32 AM CDT (3/22) 11:16 AM CDT (3/22)
Length of Visible Light 13h 00m
Length of Day
12h 11m
Waning Gibbous, 65% of the Moon is Illuminated
Mar 22
Waning Gibbous
Mar 23
Last Quarter
Mar 30
New
Apr 7
First Quarter
Apr 15
Full

Hourly Weather History & Observations

Time (CDT) Temp. Dew Point Humidity Pressure Visibility Wind Dir Wind Speed Gust Speed Precip Events Conditions
12:56 AM 64.9 °F 55.0 °F 70% 29.94 in 10.0 mi South 6.9 mph - N/A   Mostly Cloudy
1:56 AM 63.0 °F 55.0 °F 75% 29.95 in 10.0 mi South 6.9 mph - N/A   Overcast
2:56 AM 61.0 °F 55.0 °F 81% 29.95 in 10.0 mi SSE 5.8 mph - N/A   Overcast
3:56 AM 61.0 °F 55.9 °F 83% 29.95 in 10.0 mi SSE 3.5 mph - N/A   Overcast
4:56 AM 59.0 °F 55.0 °F 87% 29.95 in 10.0 mi ESE 4.6 mph - N/A   Scattered Clouds
5:30 AM 59.0 °F 55.4 °F 88% 29.96 in 9.0 mi SSE 3.5 mph - N/A   Overcast
5:56 AM 60.1 °F 55.9 °F 86% 29.96 in 9.0 mi South 5.8 mph - N/A   Overcast
6:56 AM 62.1 °F 57.9 °F 86% 29.96 in 7.0 mi South 6.9 mph - N/A   Overcast
7:56 AM 62.1 °F 59.0 °F 90% 30.00 in 5.0 mi WNW 3.5 mph - N/A   Overcast
8:38 AM 62.6 °F 59.0 °F 88% 30.04 in 2.0 mi NNW 3.5 mph - N/A   Overcast
8:56 AM 62.1 °F 60.1 °F 93% 30.04 in 2.0 mi Calm Calm - N/A   Overcast
9:26 AM 62.6 °F 60.8 °F 94% 30.04 in 3.0 mi NE 3.5 mph - N/A   Overcast
9:32 AM 62.6 °F 60.8 °F 94% 30.04 in 4.0 mi Calm Calm - N/A   Overcast
9:40 AM 64.4 °F 60.8 °F 88% 30.04 in 4.0 mi Calm Calm - N/A   Overcast
9:56 AM 64.9 °F 61.0 °F 87% 30.04 in 5.0 mi Calm Calm - N/A   Overcast
10:56 AM 66.9 °F 60.1 °F 79% 30.05 in 7.0 mi Calm Calm - N/A   Overcast
11:56 AM 69.1 °F 60.1 °F 73% 30.04 in 8.0 mi Calm Calm - N/A   Overcast
12:56 PM 71.1 °F 59.0 °F 66% 30.01 in 9.0 mi Calm Calm - N/A   Mostly Cloudy
1:56 PM 75.9 °F 60.1 °F 58% 29.99 in 10.0 mi North 5.8 mph - N/A   Overcast
2:56 PM 73.9 °F 59.0 °F 59% 29.97 in 10.0 mi Calm Calm - N/A   Mostly Cloudy
3:56 PM 75.9 °F 60.1 °F 58% 29.95 in 10.0 mi NNE 6.9 mph - N/A   Overcast
4:56 PM 73.9 °F 61.0 °F 64% 29.95 in 9.0 mi NNE 9.2 mph - N/A   Overcast
5:56 PM 72.0 °F 60.1 °F 66% 29.95 in 8.0 mi ENE 4.6 mph - N/A   Overcast
6:56 PM 70.0 °F 60.1 °F 71% 29.95 in 8.0 mi ENE 9.2 mph - N/A   Overcast
7:56 PM 69.1 °F 59.0 °F 70% 29.98 in 9.0 mi ENE 5.8 mph - N/A   Overcast
8:56 PM 66.9 °F 59.0 °F 76% 29.96 in 9.0 mi East 8.1 mph - N/A   Overcast
9:56 PM 66.9 °F 57.9 °F 73% 29.98 in 9.0 mi East 6.9 mph - N/A   Overcast
10:56 PM 66.0 °F 57.9 °F 75% 30.00 in 9.0 mi East 5.8 mph - N/A   Overcast
11:56 PM 66.0 °F 57.9 °F 75% 30.00 in 8.0 mi ENE 5.8 mph - N/A   Overcast